Regional Weather Roundup
Issued by NWS

Home | Current Version | Previous Version | Graphics & Text | Print | Product List | Glossary Off
Versions: 1 2 3 4 5 6 7 8 9 10 11 12 13 14 15 16 17 18 19 20 21 22 23 24 25 26 27 28 29 30 31 32 33 34 35 36 37 38 39 40 41 42 43 44 45 46 47 48 49 50

000
ASUS44 KMEG 031710
RWRTN
TENNESSEE HOURLY STATE WEATHER ROUNDUP
NATIONAL WEATHER SERVICE MEMPHIS TN
1200 PM CDT WED JUN 03 2015

TNZ002-004-019-021-049-052-054-088>092-031800-
WEST TENNESSEE

CITY           SKY/WX    TMP DP  RH WIND       PRES   REMARKS
MEMPHIS INTL   PTSUNNY   77  59  53 CALM      30.03S
NWS MEMPHIS      N/A     72 N/A N/A MISG        N/A
JACKSON        CLOUDY    72  56  57 N6        30.03S
DYERSBURG      CLOUDY    72  48  43 E3        30.04F
PARIS          CLOUDY    70  57  64 VRB3      30.04S
LEXINGTON      CLOUDY    68  59  73 N6        30.02F
$$

TNZ008-025-027-028-033-062-065-066-031800-
NORTH MIDDLE TENNESSEE

CITY           SKY/WX    TMP DP  RH WIND       PRES   REMARKS
NASHVILLE      CLOUDY    70  59  68 N5        30.04S
CLARKSVILLE    CLOUDY    68  56  65 CALM      30.04F
SMYRNA         CLOUDY    70  60  70 N5        30.05S
COOKEVILLE     PTSUNNY   72  63  73 VRB3      30.03F
CROSSVILLE     PTSUNNY   73  59  61 E7        30.05F
$$

TNZ061-075-076-078-094-096-097-031800-
SOUTH MIDDLE TENNESSEE

CITY           SKY/WX    TMP DP  RH WIND       PRES   REMARKS
FAYETTEVILLE   PTSUNNY  N/A N/A N/A MISG      30.01F
TULLAHOMA      PTSUNNY   72  63  73 NW6       30.03S
WINCHESTER     PTSUNNY   73  63  68 VRB6      30.01S
MCMINNVILLE    PTSUNNY   72  64  78 N7        30.03S
COLUMBIA       CLOUDY    66  61  82 NW3       30.02S
SHELBYVILLE    CLOUDY    70  63  78 NW6       30.04S
$$

TNZ017-018-042-046-047-031800-
NORTHEAST TENNESSEE

CITY           SKY/WX    TMP DP  RH WIND       PRES   REMARKS
TRI CITIES     MOSUNNY   78  58  49 NE6       30.04F
ELIZABETHTON   SUNNY     75  59  57 NE6       30.03F
$$

TNZ012-013-036-069-073-074-031800-
CENTRAL EAST TENNESSEE

CITY           SKY/WX    TMP DP  RH WIND       PRES   REMARKS
KNOXVILLE      MOSUNNY   75  60  59 CALM      30.02S
OAK RIDGE      PTSUNNY   77  60  55 VRB3      30.03F
GATLINBURG     MOSUNNY   72  61  68 VRB6      30.03S
MORRISTOWN     SUNNY     73  61  64 VRB3      30.05S
$$

TNZ083-085-099-031800-
SOUTHEAST TENNESSEE

CITY           SKY/WX    TMP DP  RH WIND       PRES   REMARKS
CHATTANOOGA    PTSUNNY   76  63  64 N7        30.01F
$$

SKY/WX REPORTED AS FAIR MEANS FEW OR NO CLOUDS BELOW
12 THOUSAND FEET.




USA.gov is the U.S. government's official web portal to all federal, state and local government web resources and services.